364  
ASUS43 KMPX 200110  
RWRMN  
WEATHER ROUNDUP FOR MINNESOTA  
NATIONAL WEATHER SERVICE TWIN CITIES/CHANHASSEN MN  
800 PM CDT SAT APR 19 2014  
 
NOTE: "FAIR" INDICATES FEW OR NO CLOUDS BELOW 12,000 FEET WITH NO  
SIGNIFICANT WEATHER AND/OR S TO VISIBILITY
. N/A MEANS  
CURRENT SKY AND/OR WEATHER CONDITIONS ARE NOT AVAILABLE.  
 
MNZ060>063-068>070-200200-  
TWIN CITIES METRO  
 
CITY SKY/WX TMP DP RH WIND PRES REMARKS
 
TWIN CITIES CLOUDY 60 53 77 VRB5 29.98R  
ST PAUL CLOUDY 55 51 86 S13 29.99S  
CRYSTAL CLOUDY 58 48 69 W5 29.98R  
BLAINE MOCLDY 61 50 67 S8 29.98R  
EDEN PRAIRIE CLOUDY 62 51 67 CALM 29.98R  
LAKEVILLE CLOUDY 57 54 88 S10 29.99F  
SOUTH ST PAUL LGT RAIN 59 52 77 S6 29.99R  
LAKE ELMO LGT RAIN 55 52 88 S9 30.00S  

 
MNZ001>005-007-008-013>017-022>024-027-028-200200-  
NORTHWEST MINNESOTA  
 
CITY SKY/WX TMP DP RH WIND PRES REMARKS
 
BEMIDJI CLEAR 59 34 39 W12G20 29.92R  
HALLOCK CLOUDY 50 37 62 NW10 29.92R  
ROSEAU CLEAR 52 41 66 W9 29.89R  
WARROAD PTCLDY 52 41 66 W12G17 29.89R  
THIEF RVR FALL CLEAR 52 37 58 W14 29.93S  
CROOKSTON CLEAR 54 41 62 NW14 29.95R  
FOSSTON CLEAR 55 39 54 NW10G16 29.94R  
DETROIT LAKES CLEAR 59 32 36 SW5 29.96R  
MOORHEAD CLEAR 64 27 24 SW8 29.93S  
PARK RAPIDS CLEAR 55 33 43 W7 29.94S  

 
MNZ006-009>011-018-025>026-200200-  
NORTH CENTRAL MINNESOTA  
 
CITY SKY/WX TMP DP RH WIND PRES REMARKS
 
BAUDETTE MOCLDY 53 40 61 VRB5 29.89R  
FLAG ISLAND MOCLDY 48 36 61 W13G22 29.86R  
INTL FALLS CLEAR 56 34 43 W10 29.88R  
WASKISH CLEAR 43 36 75 SW9 29.90S  
BIG FORK CLEAR 57 30 35 SW7 29.91S  
LONGVILLE CLEAR 59 27 29 W5 29.94R  
GRAND RAPIDS CLEAR 54 41 62 S8 29.94R  
CRANE LAKE CLEAR 46 45 93 S3 29.91S  
ORR CLEAR 54 37 54 S8 29.88R  
COOK CLEAR 52 39 62 S6 29.92R  

 
MNZ012-019>021-037-200200-  
NORTHEAST MINNESOTA  
 
CITY SKY/WX TMP DP RH WIND PRES REMARKS
 
DULUTH PTCLDY 35 29 78 SE10 29.99S WCI 27  
ELY CLEAR 45 36 70 S9 29.94S  
HIBBING CLEAR 54 39 57 S6 29.93S  
EVELETH CLEAR 52 37 58 S5 29.96R  
DULUTH HARBOR CLEAR 34 30 86 CALM 30.04S  
TWO HARBORS CLEAR 36 28 75 CALM 29.99S  
SILVER BAY CLEAR 34 34 100 NE3 30.00S  
GRAND MARAIS N/A 35 32 88 CALM 30.05S  
G MARAIS ARPRT CLEAR 34 28 80 CALM 30.02S  

 
MNZ029>031-032-039>041-046>048-054>057-064-200200-  
WEST CENTRAL MINNESOTA  
 
CITY SKY/WX TMP DP RH WIND PRES REMARKS
 
FERGUS FALLS CLEAR 59 30 33 W5 29.92S  
WHEATON CLEAR 66 36 32 CALM 29.97S  
MORRIS PTCLDY 63 34 34 SW5 29.96S  
ALEXANDRIA PTCLDY 59 32 36 W7 29.98R  
ELBOW LAKE FAIR 59 35 40 NW5 29.96S  
WADENA CLEAR 57 34 41 W5 29.96R  
GLENWOOD PTCLDY 57 37 47 S7 29.99R  
APPLETON PTCLDY 61 37 41 S6 29.98R  
BENSON PTCLDY 59 39 47 SW7 29.98S  
ORTONVILLE PTCLDY 64 27 24 W3 29.97S  
MADISON MOCLDY 61 45 55 S7 29.98S  
WILLMAR FAIR 57 43 58 CALM 29.99S  

 
MNZ033>034-036-042>043-049>051-058-059-200200-  
CENTRAL MINNESOTA  
 
CITY SKY/WX TMP DP RH WIND PRES REMARKS
 
ST CLOUD MOCLDY 55 47 74 S3 29.98R  
SAUK CENTRE FAIR 56 41 56 S7 29.98S  
PAYNESVILLE MOCLDY 57 38 50 CALM 29.98F  
AITKIN CLEAR 57 45 62 S7 29.94S  
PINE RIVER CLEAR 61 34 36 W3 29.98R  
BRAINERD CLEAR 66 28 24 W6 29.96R  
STAPLES CLEAR 57 30 35 W7 29.96S  
LONG PRAIRIE FAIR 61 32 33 CALM 29.97S  
LITTLE FALLS PTCLDY 59 39 47 S7 29.97S  
LITCHFIELD N/A 59 45 58 CALM 29.99S  
BUFFALO CLOUDY 56 46 67 CALM 30.00S  
MAPLE LAKE CLOUDY 54 47 78 CALM 30.00S  

 
MNZ037-044-045-052-053-200200-  
EAST CENTRAL MINNESOTA  
 
CITY SKY/WX TMP DP RH WIND PRES REMARKS
 
PRINCETON CLOUDY 54 48 82 CALM 29.99S  
MORA PTCLDY 50 39 66 CALM 30.00S  
CAMBRIDGE CLOUDY 50 39 66 CALM 29.97S  
RUSH CITY CLOUDY 46 39 76 CALM 30.00R  
MOOSE LAKE PTCLDY 54 39 58 S3 29.96S  
HINCKLEY FAIR 50 39 66 CALM 29.99S  
CLOQUET CLEAR 39 30 70 E5 29.99S  
MCGREGOR CLEAR 54 41 62 S6 29.96S  

 
MNZ071>073-080-081-089-090-097-098-200200-  
SOUTHWEST MINNESOTA  
 
CITY SKY/WX TMP DP RH WIND PRES REMARKS
 
MONTEVIDEO MOCLDY 61 39 44 W3 29.99S  
GRANITE FALLS MOCLDY 56 45 65 CALM 30.00S  
CANBY PTCLDY 61 36 39 SW8 30.00S  
MARSHALL MOCLDY 63 37 39 NW7 29.98F  
REDWOOD FALLS MOCLDY 61 41 47 CALM 29.99S  
OLIVIA MOCLDY 55 45 67 CALM 29.99S  
PIPESTONE CLOUDY 63 34 34 NE7 29.99F  
WINDOM LGT RAIN 61 46 59 N6 30.00S  
WORTHINGTON CLOUDY 63 41 45 N6 30.02S  
JACKSON CLOUDY 63 46 55 VRB6 30.00S  
TRACY MOCLDY 59 42 53 CALM 30.00S  
SLAYTON CLOUDY 60 36 41 N3 30.01S  

 
MNZ065>067-074>077-082>085-091>093-200200-  
SOUTH CENTRAL MINNESOTA  
 
CITY SKY/WX TMP DP RH WIND PRES REMARKS
 
MANKATO CLOUDY 57 54 88 SE6 29.98F  
NEW ULM LGT RAIN 57 48 72 N7 30.00R  
ST JAMES CLOUDY 61 52 72 NW5 29.99F  
FAIRMONT CLOUDY 66 46 48 NW7 30.00S  
GLENCOE CLOUDY 59 44 57 NW5 29.99S  
FARIBAULT RAIN 63 54 72 SE3 30.00F  
OWATONNA CLOUDY 63 52 67 N5 30.01S  
WASECA CLOUDY 61 54 77 NE5 30.01F  
ALBERT LEA CLOUDY 70 45 40 S13G20 30.00R  

 
MNZ078>079-086>088-094>096-200200-  
SOUTHEAST MINNESOTA  
 
CITY SKY/WX TMP DP RH WIND PRES REMARKS
 
ROCHESTER CLOUDY 65 45 48 S16 30.02R  
RED WING LGT RAIN 64 48 55 W5 30.01R  
STANTON LGT RAIN 58 54 85 SE7 29.99F  
DODGE CENTER CLOUDY 64 46 52 S12 30.00S  
WINONA N/A N/A N/A N/A MISG N/A  
AUSTIN CLOUDY 66 41 39 S14 30.01R  
PRESTON CLOUDY 66 44 44 S16 30.04F  

 
ABBREVIATIONS USED IN REMARKS  
TC - TEMPERATURES IN CELSIUS  
WCI - WIND CHILL INDEX  
HX - HEAT INDEX  
VSB - VISIBILITY  

 
 
CLICK HERE TO GO TO PREVIOUS BULLETINS.

The Nexlab MN Page Main Text Page